EW8780 Weather Reports


Display with metric or nautical units.
time (UTC)temp
F
wind
direction
speed
MPH
gust
MPH
rain 1hr
in
rain 24hr
in
rain mn
in
humidity
%
barometer
mb
20260508050100 53 219 0.0 0.0 0.00 0.00 0.00 92 1016.5
20260508044600 53 219 0.0 0.0 0.00 0.00 0.00 92 1016.5
20260508043108 53 219 0.0 0.0 0.00 0.00 0.00 92 1016.5
20260508041556 53 219 0.0 0.0 0.00 0.00 0.00 91 1016.5
20260508040057 53 219 0.0 1.0 0.00 0.00 0.00 91 1016.3
20260508034555 53 219 0.0 0.0 0.00 0.00 0.00 90 1016.1
20260508033055 53 219 0.0 0.0 0.00 0.00 0.00 90 1016.1
20260508031555 54 219 0.0 2.0 0.00 0.00 0.00 89 1016.1
20260508030054 54 219 0.0 2.0 0.00 0.00 0.00 89 1015.8
20260508024558 54 203 0.0 2.0 0.00 0.00 0.00 89 1015.6
20260508023053 54 202 0.0 3.0 0.00 0.00 0.00 89 1015.6
20260508021553 54 215 3.0 4.0 0.00 0.00 0.00 87 1015.5
20260508020056 54 215 2.0 3.0 0.00 0.00 0.00 87 1015.4
20260508014551 55 217 1.0 3.0 0.00 0.00 0.00 87 1015.2
20260508013049 54 213 0.0 3.0 0.00 0.00 0.00 87 1015.5
20260508011549 55 212 1.0 4.0 0.00 0.00 0.00 86 1015.7
20260508010049 55 194 2.0 6.0 0.00 0.00 0.00 86 1015.9
20260508004547 55 186 3.0 6.0 0.00 0.00 0.00 86 1015.9
20260508003046 57 209 3.0 6.0 0.00 0.00 0.00 86 1015.6
20260508001547 57 191 0.0 3.0 0.00 0.00 0.00 85 1015.5
20260508000045 56 190 0.0 4.0 0.00 0.00 0.00 87 1015.7
20260507234544 57 208 2.0 6.0 0.00 0.00 0.00 86 1016.0
20260507233042 56 206 2.0 5.0 0.00 0.00 0.00 85 1016.1
20260507231547 56 217 2.0 5.0 0.00 0.00 0.00 86 1016.3
20260507230047 56 193 2.0 4.0 0.00 0.00 0.00 86 1016.3
20260507224541 56 165 1.0 4.0 0.00 0.00 0.00 87 1016.4
20260507223040 56 191 1.0 5.0 0.00 0.00 0.00 87 1016.5
20260507221539 56 194 3.0 5.0 0.00 0.00 0.00 87 1016.7
20260507220039 56 211 2.0 5.0 0.00 0.00 0.00 86 1016.7
20260507214557 56 217 3.0 6.0 0.00 0.00 0.00 86 1016.7
20260507213040 57 211 2.0 7.0 0.00 0.00 0.00 87 1016.7
20260507211538 57 212 3.0 6.0 0.00 0.00 0.00 87 1016.5
20260507210049 57 188 2.0 5.0 0.00 0.00 0.00 86 1016.6
20260507204537 57 200 2.0 5.0 0.00 0.00 0.00 87 1016.7
20260507203046 57 198 3.0 8.0 0.00 0.00 0.00 86 1016.6
20260507201542 57 208 2.0 6.0 0.00 0.00 0.00 85 1016.4
20260507200037 58 231 3.0 7.0 0.00 0.00 0.00 84 1016.3
20260507194559 58 175 3.0 7.0 0.00 0.00 0.00 85 1016.3
20260507193034 58 209 3.0 8.0 0.00 0.00 0.00 86 1016.2
20260507191532 59 205 3.0 6.0 0.00 0.00 0.00 86 1016.1
20260507190030 58 209 3.0 6.0 0.00 0.00 0.00 85 1016.1
20260507184530 58 221 1.0 4.0 0.00 0.00 0.00 86 1016.3
20260507183034 57 206 1.0 3.0 0.00 0.00 0.00 85 1016.4
20260507181526 57 213 1.0 4.0 0.00 0.00 0.00 86 1016.4
20260507180031 57 209 1.0 4.0 0.00 0.00 0.00 86 1016.5
20260507174534 58 200 0.0 4.0 0.00 0.00 0.00 86 1016.5
20260507173031 56 206 1.0 3.0 0.00 0.00 0.00 87 1016.4
20260507171519 55 193 0.0 2.0 0.00 0.00 0.00 87 1016.5
20260507170019 55 193 0.0 1.0 0.00 0.00 0.00 88 1016.4
20260507164517 55 193 0.0 3.0 0.00 0.00 0.00 89 1016.4
20260507163014 54 164 0.0 2.0 0.00 0.00 0.00 89 1016.4
20260507161511 54 163 0.0 0.0 0.00 0.00 0.00 89 1016.4
20260507160013 54 163 0.0 0.0 0.00 0.00 0.00 90 1016.5
20260507154509 53 163 0.0 1.0 0.00 0.00 0.00 90 1016.5
20260507153004 53 199 0.0 2.0 0.00 0.00 0.00 90 1016.5
20260507151600 53 145 0.0 0.0 0.00 0.00 0.00 90 1016.4
20260507150059 52 145 0.0 0.0 0.00 0.00 0.00 92 1016.2
20260507144553 52 145 0.0 0.0 0.00 0.00 0.00 93 1016.1
20260507143058 52 144 0.0 0.0 0.00 0.00 0.00 93 1016.2
20260507141551 51 175 0.0 0.0 0.00 0.00 0.00 94 1016.1
20260507140048 51 177 0.0 0.0 0.00 0.00 0.00 94 1016.1
20260507134547 51 177 0.0 0.0 0.00 0.00 0.00 94 1016.1
20260507133047 51 179 0.0 0.0 0.00 0.00 0.00 94 1016.1
20260507131608 51 179 0.0 0.0 0.00 0.00 0.00 94 1016.1
20260507130044 51 179 0.0 0.0 0.00 0.00 0.00 94 1016.0
20260507124545 50 179 0.0 0.0 0.00 0.00 0.00 93 1016.0
20260507123044 51 179 0.0 0.0 0.00 0.00 0.00 93 1016.0
20260507121543 51 179 0.0 0.0 0.00 0.00 0.00 93 1016.0
20260507120041 51 179 0.0 0.0 0.00 0.00 0.00 94 1016.0
20260507114541 51 179 0.0 0.0 0.00 0.02 0.00 94 1016.1
20260507113037 51 179 0.0 0.0 0.00 0.02 0.00 94 1016.3
20260507111536 51 179 0.0 0.0 0.00 0.02 0.00 94 1016.4
20260507110035 51 179 0.0 0.0 0.00 0.02 0.00 94 1016.5
20260507104538 51 179 0.0 0.0 0.00 0.02 0.00 94 1016.6
20260507103034 51 179 0.0 0.0 0.00 0.02 0.00 94 1016.6
20260507101531 52 179 0.0 0.0 0.00 0.02 0.00 94 1016.6
20260507100034 52 179 0.0 0.0 0.00 0.02 0.00 94 1016.6
20260507094528 52 179 0.0 0.0 0.00 0.02 0.00 94 1016.8
20260507093026 52 179 0.0 0.0 0.00 0.02 0.00 94 1016.9
20260507091527 52 179 0.0 0.0 0.00 0.02 0.00 94 1017.2
20260507090023 52 179 0.0 0.0 0.00 0.02 0.00 93 1017.3
20260507084523 52 179 0.0 0.0 0.00 0.02 0.00 93 1017.3
20260507083022 52 179 0.0 0.0 0.00 0.02 0.00 93 1017.2
20260507081519 52 179 0.0 0.0 0.00 0.02 0.00 93 1017.3
20260507080018 52 179 0.0 0.0 0.00 0.02 0.00 93 1017.3
20260507074518 52 179 0.0 0.0 0.00 0.02 0.00 93 1017.4
20260507073016 52 179 0.0 0.0 0.00 0.02 0.00 93 1017.4
20260507071539 52 179 0.0 0.0 0.00 0.02 0.00 93 1017.5
20260507070014 53 179 0.0 0.0 0.00 0.02 0.00 93 1017.6
20260507064515 53 179 0.0 0.0 0.00 0.02 0.02 93 1017.6
20260507063012 53 179 0.0 0.0 0.00 0.02 0.02 92 1017.7
20260507061511 53 179 0.0 0.0 0.00 0.02 0.02 92 1017.8
20260507060011 53 179 0.0 0.0 0.00 0.02 0.02 92 1017.8
20260507054511 53 179 0.0 0.0 0.00 0.02 0.02 92 1017.9
20260507053013 53 179 0.0 0.0 0.00 0.02 0.02 92 1017.9
20260507051516 53 179 0.0 0.0 0.00 0.02 0.02 93 1018.1